Flag for Canada Weather past 2 weeks in Saanich, British Columbia, Canada

Now
75 °F

Sunny.


Feels Like: 78 °F
Forecast: 56 / 75 °F
Wind: 9 mph from East

Location: Victoria Int. Airportb. C.

Current Time: Jul 4, 2015 at 12:36:56 PM

Latest Report: Jul 4, 2015 at 12:00 PM


Visibility: 30 mi

Pressure: 29.86 "Hg

Humidity: 41%

Dew point: 50 °F

Location of SaanichLocation

Historic Weather in Saanich — Graph

°F

Saanich temperature yesterday

Maximum temperature yesterday: 81 °F (at 2:00 PM)
Minimum temperature yesterday: 57 °F (at 3:00 AM)
Average temperature yesterday: 69 °F

Past Weeks' High & Low Weather Summary

 TemperatureHumidityPressure
High84 °F (Jun 27, 7:00 PM)94% (Jun 20, 4:00 AM)30.16 "Hg (Jun 20, 4:00 AM)
Low50 °F (Jun 20, 4:00 AM)30% (Jun 21, 4:00 PM)29.84 "Hg (Jul 3, 8:00 PM)
Average67 °F63%30.01 "Hg
* Reported Jun 19 11:00 AM — Jul 4 11:00 AM, Saanich, Weather by CustomWeather, © 2015

Note: Actual official high and low records may vary slightly from our data, if they occured in-between our weather recording intervals... More about our weather records

Advertising

Saanich weather history for previous 24 hours

 ConditionsComfort  
Time TempWeatherWind HumidityBarometerVisibility
11:00 AM
Sat, Jul 4
73 °FSunny.8 mph44%29.87 "Hg30 mi
10:00 AM70 °FSunny.8 mph57%29.88 "Hg30 mi
9:00 AM73 °FPassing clouds.3 mph44%29.88 "Hg30 mi
8:00 AM66 °FPassing clouds.2 mph64%29.88 "Hg30 mi
7:00 AM61 °FPassing clouds.No wind83%29.88 "Hg30 mi
6:00 AM55 °FPassing clouds.No wind88%29.88 "Hg30 mi
5:00 AM55 °FPassing clouds.No wind88%29.88 "Hg30 mi
4:00 AM57 °FPassing clouds.2 mph82%29.87 "Hg30 mi
3:00 AM59 °FClear.7 mph77%29.86 "Hg30 mi
2:00 AM59 °FClear.No wind82%29.86 "Hg30 mi
1:00 AM63 °FClear.5 mph73%29.86 "Hg30 mi
12:00 AM64 °FClear.2 mph68%29.86 "Hg30 mi
11:00 PM
Fri, Jul 3
66 °FPassing clouds.3 mph64%29.86 "Hg30 mi
10:00 PM64 °FPassing clouds.No wind68%29.85 "Hg30 mi
9:00 PM70 °FPassing clouds.7 mph57%29.84 "Hg30 mi
8:00 PM77 °FSunny.5 mph44%29.84 "Hg30 mi
7:00 PM79 °FSunny.7 mph42%29.85 "Hg30 mi
6:00 PM81 °FSunny.7 mph39%29.86 "Hg30 mi
5:00 PM81 °FSunny.7 mph39%29.88 "Hg30 mi
4:00 PM81 °FSunny.3 mph39%29.89 "Hg30 mi
3:00 PM81 °FSunny.7 mph39%29.91 "Hg30 mi
2:00 PM81 °FPassing clouds.7 mph42%29.93 "Hg30 mi
1:00 PM77 °FPassing clouds.6 mph44%29.94 "Hg30 mi
12:00 PM75 °FPassing clouds.7 mph50%29.95 "Hg30 mi
Weather by CustomWeather, © 2015

See weather overviewHow to use our weather pages